Regional Weather Roundup
Issued by NWS

Home | Current Version | Previous Version | Text Only | Print | Product List | Glossary Off
Versions: 1 2 3 4 5 6 7 8 9 10 11 12 13 14 15 16 17 18 19 20 21 22 23 24 25 26 27 28 29 30 31 32 33 34 35 36 37 38 39 40 41 42 43 44 45 46 47 48 49 50

000
ASUS43 KDMX 251106
RWRIA

WEATHER ROUNDUP FOR IOWA
NATIONAL WEATHER SERVICE DES MOINES IA
600 AM CDT MON SEP 25 2017

NOTE: "FAIR" INDICATES FEW OR NO CLOUDS BELOW 12,000 FEET WITH NO
SIGNIFICANT WEATHER AND/OR OBSTRUCTIONS TO VISIBILITY.

* - THESE STATIONS ARE NOT NWS STATIONS...THUS NOT UNDER NWS
QUALITY CONTROL.  THEY ALSO DO NOT REPORT WEATHER SUCH
AS PRECIPITATION OR FOG.

IAZ001>003-012>014-020>022-031>034-043>046-251200-
   NORTHWEST IOWA

CITY           SKY/WX    TMP DP  RH WIND       PRES   REMARKS
CARROLL *      FOG       66  66 100 NW10      29.96R VSB 1/2
CHEROKEE *     HVY RAIN  59  59 100 NE10      29.98S
DENISON *      CLOUDY    63  63 100 NE8       29.95F
LE MARS *      HVY RAIN  57  55  94 N5        29.98R
ORANGE CITY *  HVY RAIN  57  57 100 NE3       30.00R
SHELDON *      RAIN      54  54 100 NE13      29.96F
SIOUX CITY     TSTM      56  56 100 NW8       29.99R FOG
SPENCER        CLOUDY    57  55  93 N7        30.00R
STORM LAKE *   HVY RAIN  61  61 100 NE14      29.97S
$$

IAZ055>058-069>071-079>083-090>094-251200-
   SOUTHWEST IOWA

CITY           SKY/WX    TMP DP  RH WIND       PRES   REMARKS
ATLANTIC *     CLOUDY    64  64 100 N10       29.95R FOG
AUDUBON *      CLOUDY    63  61  94 N6        29.97R
CLARINDA *     PTCLDY    63  63 100 CALM      29.94S FOG
COUNCIL BLFS * PTCLDY    63  63 100 NE7       29.93F
CRESTON *      PTCLDY    64  63  94 NE5       29.95S
HARLAN  *      CLOUDY    63  63 100 NE6       29.97F
LAMONI         PTCLDY    67  64  90 SE6       29.94R
RED OAK *      CLOUDY    64  63  94 N7        29.94R
SHENANDOAH *   MOCLDY    64  63  94 NW6       29.93R
$$

IAZ047>049-059>061-072>074-084-251200-
   CENTRAL IOWA

CITY           SKY/WX    TMP DP  RH WIND       PRES   REMARKS
AMES           PTCLDY    62  62 100 CALM      29.93R
ANKENY *       PTCLDY    63  61  94 CALM      29.94R
BOONE *        PTCLDY    66  63  88 SW7       29.93R
CHARITON *     PTCLDY    66  63  88 SE6       29.93S
DES MOINES     MOCLDY    70  64  81 CALM      29.92S
GRINNELL*      PTCLDY    66  61  85 CALM      29.95S
KNOXVILLE *    CLOUDY    68  63  83 S5        29.92R
MARSHALLTOWN   PTCLDY    65  62  90 CALM      29.93R
NEWTON *       MOCLDY    66  63  88 CALM      29.95R
PELLA *        MOCLDY    67  62  86 CALM      29.94S
PERRY *        FOG       65  64  98 CALM      29.94R VSB 1/4
$$

IAZ004>006-015-016-023>025-035-036-251200-
   NORTH CENTRAL IOWA

CITY           SKY/WX    TMP DP  RH WIND       PRES   REMARKS
ALGONA *       CLOUDY    61  61 100 N6G14     29.98R
CLARION *      MOCLDY    66  66 100 N7        29.95R
ESTHERVILLE    CLOUDY    54  54 100 N14       29.99R
FORT DODGE *   CLOUDY    66  65  96 N7        29.95S FOG
MASON CITY     CLOUDY    66  64  93 NW7       29.96R
FOREST CITY *  CLOUDY    63  63 100 N8        29.96S FOG
WEBSTER CITY * MOCLDY    64  63  94 CALM      29.93R
IOWA FALLS *     N/A     63  61  94 CALM      29.94R
$$

IAZ007>011-017>019-026>030-037>042-050>054-066-251200-
   NORTHEAST IOWA

CITY           SKY/WX    TMP DP  RH WIND       PRES   REMARKS
CEDAR RAPIDS   CLEAR     64  62  93 SE5       29.95R
CHARLES CITY * PTCLDY    63  63 100 NE5       29.94S
CLINTON *      CLEAR    N/A N/A N/A E6        29.98S
DECORAH *      PTCLDY    64  61  88 CALM      29.94R
DUBUQUE        CLEAR     64  60  87 S3        29.98R
MONTICELLO *   PTCLDY    63  61  94 E3        29.96R
OELWEIN *      MOCLDY    64  63  94 SE6       29.96R
WATERLOO       PTCLDY    63  60  90 CALM      29.93R
$$

IAZ064-065-067-068-078-251200-
   EAST CENTRAL IOWA

CITY           SKY/WX    TMP DP  RH WIND       PRES   REMARKS
DAVENPORT      CLEAR     63  60  90 SE5       29.98S
IOWA CITY      CLEAR     65  62  90 CALM      29.97R
MUSCATINE *    MOCLDY    63  61  94 CALM      29.96S
QUAD CITIES    CLEAR     65  60  84 E3        29.96S
$$

IAZ062-063-075>077-085>089-095>099-251200-
   SOUTHEAST IOWA

CITY           SKY/WX    TMP DP  RH WIND       PRES   REMARKS
BURLINGTON     CLEAR     66  64  93 S6        29.96R
FAIRFIELD *    CLEAR     66  61  82 SE3       29.95R
FORT MADISON * CLEAR     68  63  83 S6        29.97R
KEOKUK *       CLEAR     70  64  83 SW6       29.96R
OSKALOOSA *      N/A     65  62  90 SE5       29.95R
OTTUMWA        CLEAR     66  62  87 S5        29.93F
WASHINGTON *   CLEAR     64  63  94 SE6       29.96S
$$

ABBREVIATIONS USED IN REMARKS
   TC - TEMPERATURES IN CELSIUS
  WCI - WIND CHILL INDEX
   HX - HEAT INDEX
  VSB - VISIBILITY
$$





USA.gov is the U.S. government's official web portal to all federal, state and local government web resources and services.